Time,TemperatureF,DewpointF,PressureIn,WindDirection,WindDirectionDegrees,WindSpeedMPH,WindSpeedGustMPH,Humidity,HourlyPrecipIn,Conditions,Clouds,dailyrainin,SoftwareType,DateUTC
2013-02-06 00:00:00,31.7,26.2,30.09,NNE,16,0.0,0.0,80,0.00,,SKC,0.00,VWS V13.01,2013-02-06 06:00:00,
2013-02-06 00:05:00,31.5,26.0,30.09,NNE,16,0.0,0.0,80,0.00,,SKC,0.00,VWS V13.01,2013-02-06 06:05:00,
2013-02-06 00:10:00,31.4,26.0,30.10,NNE,16,0.0,0.0,80,0.00,,SKC,0.00,VWS V13.01,2013-02-06 06:10:00,
2013-02-06 00:15:00,31.2,25.8,30.10,NNE,16,0.0,0.0,80,0.00,,SKC,0.00,VWS V13.01,2013-02-06 06:15:00,
2013-02-06 00:20:00,31.0,25.6,30.10,NNE,16,0.0,0.0,80,0.00,,SKC,0.00,VWS V13.01,2013-02-06 06:20:00,
2013-02-06 00:25:00,30.8,25.7,30.09,NNE,16,0.0,0.0,81,0.00,,SKC,0.00,VWS V13.01,2013-02-06 06:25:00,
2013-02-06 00:30:00,30.6,25.5,30.10,NNE,16,0.0,0.0,81,0.00,,SKC,0.00,VWS V13.01,2013-02-06 06:30:00,
2013-02-06 00:36:00,30.5,25.7,30.09,NNE,16,0.0,0.0,82,0.00,,SKC,0.00,VWS V13.01,2013-02-06 06:36:00,
2013-02-06 00:41:00,30.5,25.7,30.09,NNE,16,0.0,0.0,82,0.00,,SKC,0.00,VWS V13.01,2013-02-06 06:41:00,
2013-02-06 00:47:00,30.5,26.0,30.10,NNE,16,0.0,0.0,83,0.00,,SKC,0.00,VWS V13.01,2013-02-06 06:47:00,
2013-02-06 00:52:00,30.5,26.0,30.10,NNE,16,0.0,0.0,83,0.00,,SKC,0.00,VWS V13.01,2013-02-06 06:52:00,
2013-02-06 00:57:00,30.5,26.0,30.10,NNE,16,0.0,0.0,83,0.00,,SKC,0.00,VWS V13.01,2013-02-06 06:57:00,
2013-02-06 01:02:00,30.5,26.0,30.10,NNE,16,0.0,0.0,83,0.00,,SKC,0.00,VWS V13.01,2013-02-06 07:02:00,
2013-02-06 01:07:00,30.6,26.4,30.10,NNE,16,0.0,0.0,84,0.00,,SKC,0.00,VWS V13.01,2013-02-06 07:07:00,
2013-02-06 01:12:00,30.6,26.4,30.10,NNE,16,0.0,0.0,84,0.00,,SKC,0.00,VWS V13.01,2013-02-06 07:12:00,
2013-02-06 01:17:00,30.6,26.4,30.10,NNE,16,0.0,0.0,84,0.00,,SKC,0.00,VWS V13.01,2013-02-06 07:17:00,
2013-02-06 01:22:00,30.6,26.4,30.09,NNE,16,0.0,0.0,84,0.00,,SKC,0.00,VWS V13.01,2013-02-06 07:22:00,
2013-02-06 01:27:00,30.6,26.4,30.09,NNE,16,0.0,0.0,84,0.00,,SKC,0.00,VWS V13.01,2013-02-06 07:27:00,
2013-02-06 01:33:00,30.9,26.9,30.08,NNE,16,0.0,0.0,85,0.00,,SKC,0.00,VWS V13.01,2013-02-06 07:33:00,
2013-02-06 01:38:00,31.1,27.1,30.08,NNE,16,0.0,0.0,85,0.00,,SKC,0.00,VWS V13.01,2013-02-06 07:38:00,
2013-02-06 01:43:00,31.5,27.5,30.08,NNE,16,0.0,0.0,85,0.00,,SKC,0.00,VWS V13.01,2013-02-06 07:43:00,
2013-02-06 01:49:00,31.9,27.9,30.08,NNE,16,0.0,0.0,85,0.00,,SKC,0.00,VWS V13.01,2013-02-06 07:49:00,
2013-02-06 01:54:00,32.4,28.1,30.08,NNE,16,0.0,0.0,84,0.00,,SKC,0.00,VWS V13.01,2013-02-06 07:54:00,
2013-02-06 01:59:00,32.5,27.9,30.08,NNE,16,0.0,0.0,83,0.00,,SKC,0.00,VWS V13.01,2013-02-06 07:59:00,
2013-02-06 02:04:00,32.6,28.0,30.08,NNE,16,0.0,0.0,83,0.00,,SKC,0.00,VWS V13.01,2013-02-06 08:04:00,
2013-02-06 02:10:00,32.7,28.1,30.08,NNE,16,0.0,0.0,83,0.00,,SKC,0.00,VWS V13.01,2013-02-06 08:10:00,
2013-02-06 02:15:00,32.7,28.1,30.08,NNE,18,0.0,0.0,83,0.00,,SKC,0.00,VWS V13.01,2013-02-06 08:15:00,
2013-02-06 02:21:00,32.8,28.2,30.08,NNE,20,0.0,0.0,83,0.00,,SKC,0.00,VWS V13.01,2013-02-06 08:21:00,
2013-02-06 02:26:00,33.0,28.4,30.08,NE,37,0.0,0.0,83,0.00,,SKC,0.00,VWS V13.01,2013-02-06 08:26:00,
2013-02-06 02:31:00,33.2,28.3,30.08,NE,50,0.0,0.0,82,0.00,,SKC,0.00,VWS V13.01,2013-02-06 08:31:00,
2013-02-06 02:36:00,33.4,28.5,30.07,ENE,58,0.0,0.0,82,0.00,,SKC,0.00,VWS V13.01,2013-02-06 08:36:00,
2013-02-06 02:41:00,33.5,28.6,30.07,ENE,62,0.0,0.0,82,0.00,,SKC,0.00,VWS V13.01,2013-02-06 08:41:00,
2013-02-06 02:46:00,33.6,28.7,30.07,ENE,75,0.0,0.0,82,0.00,,SKC,0.00,VWS V13.01,2013-02-06 08:46:00,
2013-02-06 02:51:00,33.7,28.5,30.08,ENE,76,0.0,0.0,81,0.00,,SKC,0.00,VWS V13.01,2013-02-06 08:51:00,
2013-02-06 02:57:00,33.8,28.6,30.08,ENE,77,0.0,0.0,81,0.00,,SKC,0.00,VWS V13.01,2013-02-06 08:57:00,
2013-02-06 03:02:00,33.8,28.6,30.07,ENE,77,0.0,0.0,81,0.00,,SKC,0.00,VWS V13.01,2013-02-06 09:02:00,
2013-02-06 03:07:00,33.9,28.7,30.07,ENE,77,0.0,0.0,81,0.00,,SKC,0.00,VWS V13.01,2013-02-06 09:07:00,
2013-02-06 03:12:00,34.0,28.8,30.07,East,80,0.0,0.0,81,0.00,,SKC,0.00,VWS V13.01,2013-02-06 09:12:00,
2013-02-06 03:17:00,34.0,28.8,30.07,East,87,0.0,2.0,81,0.00,,SKC,0.00,VWS V13.01,2013-02-06 09:17:00,
2013-02-06 03:22:00,34.1,28.6,30.06,East,87,0.0,2.0,80,0.00,,SKC,0.00,VWS V13.01,2013-02-06 09:22:00,
2013-02-06 03:27:00,34.1,28.6,30.06,East,87,0.0,0.0,80,0.00,,SKC,0.00,VWS V13.01,2013-02-06 09:27:00,
2013-02-06 03:32:00,34.1,28.6,30.06,East,87,0.0,1.0,80,0.00,,SKC,0.00,VWS V13.01,2013-02-06 09:32:00,
2013-02-06 03:37:00,34.2,28.7,30.06,East,96,2.0,5.0,80,0.00,,SKC,0.00,VWS V13.01,2013-02-06 09:37:00,
2013-02-06 03:42:00,34.2,28.7,30.05,East,97,0.0,1.0,80,0.00,,SKC,0.00,VWS V13.01,2013-02-06 09:42:00,
2013-02-06 03:48:00,34.2,28.7,30.05,East,97,0.0,4.0,80,0.00,,SKC,0.00,VWS V13.01,2013-02-06 09:48:00,
2013-02-06 03:53:00,34.1,28.6,30.05,East,97,2.0,4.0,80,0.00,,SKC,0.00,VWS V13.01,2013-02-06 09:53:00,
2013-02-06 03:58:00,34.0,28.2,30.05,East,97,1.0,2.0,79,0.00,,SKC,0.00,VWS V13.01,2013-02-06 09:58:00,
2013-02-06 04:03:00,33.9,28.4,30.05,East,97,0.0,0.0,80,0.00,,SKC,0.00,VWS V13.01,2013-02-06 10:03:00,
2013-02-06 04:08:00,33.8,28.3,30.05,East,97,0.0,0.0,80,0.00,,SKC,0.00,VWS V13.01,2013-02-06 10:08:00,
2013-02-06 04:13:00,33.7,28.2,30.05,East,97,0.0,2.0,80,0.00,,SKC,0.00,VWS V13.01,2013-02-06 10:13:00,
2013-02-06 04:18:00,33.7,28.2,30.04,East,97,1.0,1.0,80,0.00,,SKC,0.00,VWS V13.01,2013-02-06 10:18:00,
2013-02-06 04:23:00,33.6,28.1,30.04,East,97,0.0,0.0,80,0.00,,SKC,0.00,VWS V13.01,2013-02-06 10:23:00,
2013-02-06 04:29:00,33.5,28.3,30.05,East,97,0.0,1.0,81,0.00,,SKC,0.00,VWS V13.01,2013-02-06 10:29:00,
2013-02-06 04:34:00,33.5,28.3,30.04,East,97,0.0,0.0,81,0.00,,SKC,0.00,VWS V13.01,2013-02-06 10:34:00,
2013-02-06 04:39:00,33.4,28.2,30.05,East,97,2.0,2.0,81,0.00,,SKC,0.00,VWS V13.01,2013-02-06 10:39:00,
2013-02-06 04:44:00,33.3,28.1,30.04,East,97,0.0,0.0,81,0.00,,SKC,0.00,VWS V13.01,2013-02-06 10:44:00,
2013-02-06 04:49:00,33.2,28.0,30.04,East,97,0.0,0.0,81,0.00,,SKC,0.00,VWS V13.01,2013-02-06 10:49:00,
2013-02-06 04:54:00,33.0,27.8,30.05,East,97,0.0,0.0,81,0.00,,SKC,0.00,VWS V13.01,2013-02-06 10:54:00,
2013-02-06 04:59:00,33.0,27.8,30.04,East,97,0.0,0.0,81,0.00,,SKC,0.00,VWS V13.01,2013-02-06 10:59:00,
2013-02-06 05:05:00,32.8,27.6,30.05,East,97,0.0,0.0,81,0.00,,SKC,0.00,VWS V13.01,2013-02-06 11:05:00,
2013-02-06 05:10:00,32.7,27.5,30.04,East,97,0.0,0.0,81,0.00,,SKC,0.00,VWS V13.01,2013-02-06 11:10:00,
2013-02-06 05:15:00,32.6,27.4,30.04,East,97,0.0,0.0,81,0.00,,SKC,0.00,VWS V13.01,2013-02-06 11:15:00,
2013-02-06 05:20:00,32.5,27.6,30.04,East,97,0.0,0.0,82,0.00,,SKC,0.00,VWS V13.01,2013-02-06 11:20:00,
2013-02-06 05:25:00,32.4,27.5,30.04,East,97,0.0,0.0,82,0.00,,SKC,0.00,VWS V13.01,2013-02-06 11:25:00,
2013-02-06 05:30:00,32.3,27.4,30.04,East,97,0.0,0.0,82,0.00,,SKC,0.00,VWS V13.01,2013-02-06 11:30:00,
2013-02-06 05:35:00,32.2,27.3,30.03,East,97,0.0,0.0,82,0.00,,SKC,0.00,VWS V13.01,2013-02-06 11:35:00,
2013-02-06 05:40:00,32.1,27.2,30.03,East,97,0.0,0.0,82,0.00,,SKC,0.00,VWS V13.01,2013-02-06 11:40:00,
2013-02-06 05:46:00,31.9,27.3,30.03,East,97,0.0,0.0,83,0.00,,SKC,0.00,VWS V13.01,2013-02-06 11:46:00,
2013-02-06 05:51:00,31.8,27.2,30.03,East,97,0.0,0.0,83,0.00,,SKC,0.00,VWS V13.01,2013-02-06 11:51:00,
2013-02-06 05:56:00,31.6,27.0,30.03,East,97,0.0,0.0,83,0.00,,SKC,0.00,VWS V13.01,2013-02-06 11:56:00,
2013-02-06 06:01:00,31.6,27.3,30.04,East,97,0.0,0.0,84,0.00,,SKC,0.00,VWS V13.01,2013-02-06 12:01:00,
2013-02-06 06:06:00,31.5,27.2,30.04,East,97,0.0,0.0,84,0.00,,SKC,0.00,VWS V13.01,2013-02-06 12:06:00,
2013-02-06 06:12:00,31.5,27.2,30.04,East,97,0.0,0.0,84,0.00,,SKC,0.00,VWS V13.01,2013-02-06 12:12:00,
2013-02-06 06:17:00,31.5,27.2,30.04,East,97,0.0,0.0,84,0.00,,SKC,0.00,VWS V13.01,2013-02-06 12:17:00,
2013-02-06 06:22:00,31.5,27.2,30.04,East,97,0.0,0.0,84,0.00,,SKC,0.00,VWS V13.01,2013-02-06 12:22:00,
2013-02-06 06:27:00,31.6,27.3,30.04,East,97,0.0,0.0,84,0.00,,SKC,0.00,VWS V13.01,2013-02-06 12:27:00,
2013-02-06 06:32:00,31.7,27.4,30.04,East,97,0.0,0.0,84,0.00,,SKC,0.00,VWS V13.01,2013-02-06 12:32:00,
2013-02-06 06:37:00,31.8,27.5,30.04,East,97,0.0,0.0,84,0.00,,SKC,0.00,VWS V13.01,2013-02-06 12:37:00,
2013-02-06 06:42:00,31.9,27.6,30.04,East,97,0.0,4.0,84,0.00,,SKC,0.00,VWS V13.01,2013-02-06 12:42:00,
2013-02-06 06:47:00,32.1,27.8,30.03,East,97,1.0,2.0,84,0.00,,SKC,0.00,VWS V13.01,2013-02-06 12:47:00,
2013-02-06 06:52:00,32.3,28.0,30.02,East,98,0.0,2.0,84,0.00,,SKC,0.00,VWS V13.01,2013-02-06 12:52:00,
2013-02-06 06:57:00,32.5,28.2,30.02,ESE,110,0.0,1.0,84,0.00,,SKC,0.00,VWS V13.01,2013-02-06 12:57:00,
2013-02-06 07:02:00,32.6,28.3,30.02,ESE,110,0.0,1.0,84,0.00,,SKC,0.00,VWS V13.01,2013-02-06 13:02:00,
2013-02-06 07:07:00,32.7,28.4,30.02,ESE,110,1.0,4.0,84,0.00,,SKC,0.00,VWS V13.01,2013-02-06 13:07:00,
2013-02-06 07:12:00,32.9,28.6,30.02,ESE,110,0.0,1.0,84,0.00,,SKC,0.00,VWS V13.01,2013-02-06 13:12:00,
2013-02-06 07:17:00,33.0,28.7,30.02,ESE,119,1.0,5.0,84,0.00,,SKC,0.00,VWS V13.01,2013-02-06 13:17:00,
2013-02-06 07:22:00,33.2,28.6,30.02,SE,126,0.0,6.0,83,0.00,,SKC,0.00,VWS V13.01,2013-02-06 13:22:00,
2013-02-06 07:27:00,33.3,28.7,30.02,SE,132,8.0,9.0,83,0.00,,SKC,0.00,VWS V13.01,2013-02-06 13:27:00,
2013-02-06 07:33:00,33.5,28.9,30.02,SE,129,0.0,6.0,83,0.00,,SKC,0.00,VWS V13.01,2013-02-06 13:33:00,
2013-02-06 07:38:00,33.7,29.1,30.02,SE,133,0.0,2.0,83,0.00,,SKC,0.00,VWS V13.01,2013-02-06 13:38:00,
2013-02-06 07:43:00,33.8,29.2,30.02,SE,128,1.0,1.0,83,0.00,,SKC,0.00,VWS V13.01,2013-02-06 13:43:00,
2013-02-06 07:48:00,33.9,29.0,30.02,SE,143,1.0,7.0,82,0.00,,SKC,0.00,VWS V13.01,2013-02-06 13:48:00,
2013-02-06 07:53:00,33.9,29.0,30.02,SE,139,1.0,4.0,82,0.00,,SKC,0.00,VWS V13.01,2013-02-06 13:53:00,
2013-02-06 07:58:00,33.9,29.0,30.02,SE,140,0.0,6.0,82,0.00,,SKC,0.00,VWS V13.01,2013-02-06 13:58:00,
2013-02-06 08:03:00,34.0,29.1,30.02,SSE,157,0.0,2.0,82,0.00,,SKC,0.00,VWS V13.01,2013-02-06 14:03:00,
2013-02-06 08:08:00,34.1,29.2,30.02,SSE,157,0.0,5.0,82,0.00,,SKC,0.00,VWS V13.01,2013-02-06 14:08:00,
2013-02-06 08:13:00,34.4,29.8,30.02,SSE,156,5.0,8.0,83,0.00,,SKC,0.00,VWS V13.01,2013-02-06 14:13:00,
2013-02-06 08:18:00,34.6,30.0,30.02,SSE,156,1.0,4.0,83,0.00,,SKC,0.00,VWS V13.01,2013-02-06 14:18:00,
2013-02-06 08:23:00,35.0,30.1,30.02,SE,135,1.0,5.0,82,0.00,,SKC,0.00,VWS V13.01,2013-02-06 14:23:00,
2013-02-06 08:28:00,35.4,30.2,30.02,South,181,6.0,6.0,81,0.00,,SKC,0.00,VWS V13.01,2013-02-06 14:28:00,
2013-02-06 08:33:00,35.8,30.2,30.02,SSE,167,0.0,6.0,80,0.00,,SKC,0.00,VWS V13.01,2013-02-06 14:33:00,
2013-02-06 08:38:00,36.4,30.8,30.02,SSW,198,1.0,17.0,80,0.00,,SKC,0.00,VWS V13.01,2013-02-06 14:38:00,
2013-02-06 08:43:00,37.1,30.9,30.02,SE,137,0.0,8.0,78,0.00,,SKC,0.00,VWS V13.01,2013-02-06 14:43:00,
2013-02-06 08:48:00,37.6,31.1,30.02,SE,131,1.0,8.0,77,0.00,,SKC,0.00,VWS V13.01,2013-02-06 14:48:00,
2013-02-06 08:53:00,38.1,31.2,30.02,East,89,0.0,5.0,76,0.00,,SKC,0.00,VWS V13.01,2013-02-06 14:53:00,
2013-02-06 08:58:00,38.5,31.3,30.02,SE,134,1.0,4.0,75,0.00,,SKC,0.00,VWS V13.01,2013-02-06 14:58:00,
2013-02-06 09:03:00,38.9,31.3,30.02,SE,134,4.0,10.0,74,0.00,,SKC,0.00,VWS V13.01,2013-02-06 15:03:00,
2013-02-06 09:08:00,39.2,31.3,30.02,South,178,2.0,6.0,73,0.00,,SKC,0.00,VWS V13.01,2013-02-06 15:08:00,
2013-02-06 09:13:00,39.5,31.6,30.02,SSE,152,2.0,8.0,73,0.00,,SKC,0.00,VWS V13.01,2013-02-06 15:13:00,
2013-02-06 09:18:00,39.7,31.4,30.02,South,178,0.0,2.0,72,0.00,,SKC,0.00,VWS V13.01,2013-02-06 15:18:00,
2013-02-06 09:23:00,40.2,31.9,30.01,SSW,197,3.0,3.0,72,0.00,,SKC,0.00,VWS V13.01,2013-02-06 15:23:00,
2013-02-06 09:28:00,40.5,31.5,30.01,South,176,4.0,6.0,70,0.00,,SKC,0.00,VWS V13.01,2013-02-06 15:28:00,
2013-02-06 09:33:00,40.7,31.7,30.02,SE,125,0.0,7.0,70,0.00,,SKC,0.00,VWS V13.01,2013-02-06 15:33:00,
2013-02-06 09:38:00,41.1,31.7,30.01,SSE,166,7.0,11.0,69,0.00,,SKC,0.00,VWS V13.01,2013-02-06 15:38:00,
2013-02-06 09:43:00,41.5,31.7,30.01,South,183,2.0,13.0,68,0.00,,SKC,0.00,VWS V13.01,2013-02-06 15:43:00,
2013-02-06 09:48:00,42.1,32.3,30.01,SSE,164,8.0,11.0,68,0.00,,SKC,0.00,VWS V13.01,2013-02-06 15:48:00,
2013-02-06 09:53:00,42.5,32.0,30.01,SE,134,2.0,5.0,66,0.00,,SKC,0.00,VWS V13.01,2013-02-06 15:53:00,
2013-02-06 09:59:00,43.3,32.3,30.01,ESE,117,2.0,15.0,65,0.00,,SKC,0.00,VWS V13.01,2013-02-06 15:59:00,
2013-02-06 10:04:00,43.4,32.4,30.01,SSE,153,6.0,12.0,65,0.00,,SKC,0.00,VWS V13.01,2013-02-06 16:04:00,
2013-02-06 10:09:00,43.3,32.3,30.01,SSE,157,2.0,10.0,65,0.00,,SKC,0.00,VWS V13.01,2013-02-06 16:09:00,
2013-02-06 10:14:00,43.4,32.4,30.01,ENE,61,1.0,7.0,65,0.00,,SKC,0.00,VWS V13.01,2013-02-06 16:14:00,
2013-02-06 10:19:00,43.7,32.3,30.01,SSE,162,0.0,8.0,64,0.00,,SKC,0.00,VWS V13.01,2013-02-06 16:19:00,
2013-02-06 10:24:00,43.9,32.5,30.01,SSE,167,7.0,7.0,64,0.00,,SKC,0.00,VWS V13.01,2013-02-06 16:24:00,
2013-02-06 10:29:00,44.0,32.6,30.00,South,174,1.0,9.0,64,0.00,,SKC,0.00,VWS V13.01,2013-02-06 16:29:00,
2013-02-06 10:34:00,44.1,32.7,30.00,East,101,0.0,7.0,64,0.00,,SKC,0.00,VWS V13.01,2013-02-06 16:34:00,
2013-02-06 10:39:00,43.9,32.1,30.00,SE,125,6.0,14.0,63,0.00,,SKC,0.00,VWS V13.01,2013-02-06 16:39:00,
2013-02-06 10:45:00,43.7,32.3,30.00,South,181,2.0,6.0,64,0.00,,SKC,0.00,VWS V13.01,2013-02-06 16:45:00,
2013-02-06 10:50:00,43.8,32.8,30.00,SE,143,4.0,9.0,65,0.00,,SKC,0.00,VWS V13.01,2013-02-06 16:50:00,
2013-02-06 10:56:00,43.9,32.5,29.99,SSW,201,7.0,7.0,64,0.00,,SKC,0.00,VWS V13.01,2013-02-06 16:56:00,
2013-02-06 11:01:00,44.0,32.6,29.99,SSW,206,6.0,6.0,64,0.00,,SKC,0.00,VWS V13.01,2013-02-06 17:01:00,
2013-02-06 11:07:00,44.3,33.3,29.99,ENE,76,0.0,5.0,65,0.00,,SKC,0.00,VWS V13.01,2013-02-06 17:07:00,
2013-02-06 11:12:00,44.5,33.5,29.99,East,99,2.0,5.0,65,0.00,,SKC,0.00,VWS V13.01,2013-02-06 17:12:00,
2013-02-06 11:17:00,44.7,33.3,29.99,South,171,1.0,7.0,64,0.00,,SKC,0.00,VWS V13.01,2013-02-06 17:17:00,
2013-02-06 11:22:00,44.9,33.9,29.99,ESE,112,2.0,6.0,65,0.00,,SKC,0.00,VWS V13.01,2013-02-06 17:22:00,
2013-02-06 11:27:00,45.4,34.3,29.99,South,187,1.0,11.0,65,0.00,,SKC,0.00,VWS V13.01,2013-02-06 17:27:00,
2013-02-06 11:32:00,45.8,34.3,29.99,East,95,2.0,7.0,64,0.00,,SKC,0.00,VWS V13.01,2013-02-06 17:32:00,
2013-02-06 11:37:00,46.3,34.8,29.99,SSW,205,1.0,8.0,64,0.00,,SKC,0.00,VWS V13.01,2013-02-06 17:37:00,
2013-02-06 11:42:00,46.7,35.2,29.99,SSE,159,2.0,8.0,64,0.00,,SKC,0.00,VWS V13.01,2013-02-06 17:42:00,
2013-02-06 11:47:00,47.2,35.3,29.99,South,187,2.0,8.0,63,0.00,,SKC,0.00,VWS V13.01,2013-02-06 17:47:00,
2013-02-06 11:52:00,47.5,35.1,29.98,South,171,11.0,11.0,62,0.00,,SKC,0.00,VWS V13.01,2013-02-06 17:52:00,
2013-02-06 11:57:00,47.6,35.2,29.98,South,174,2.0,5.0,62,0.00,,SKC,0.00,VWS V13.01,2013-02-06 17:57:00,
2013-02-06 12:02:00,47.8,35.4,29.98,South,176,5.0,6.0,62,0.00,,SKC,0.00,VWS V13.01,2013-02-06 18:02:00,
2013-02-06 12:07:00,47.8,35.0,29.98,SSE,168,1.0,5.0,61,0.00,,SKC,0.00,VWS V13.01,2013-02-06 18:07:00,
2013-02-06 12:12:00,47.9,35.1,29.97,SSE,152,4.0,7.0,61,0.00,,SKC,0.00,VWS V13.01,2013-02-06 18:12:00,
2013-02-06 12:17:00,47.9,35.1,29.97,South,185,1.0,8.0,61,0.00,,SKC,0.00,VWS V13.01,2013-02-06 18:17:00,
2013-02-06 12:23:00,47.9,35.1,29.97,SSE,168,1.0,4.0,61,0.00,,SKC,0.00,VWS V13.01,2013-02-06 18:23:00,
2013-02-06 12:28:00,48.1,35.7,29.97,SSE,153,1.0,5.0,62,0.00,,SKC,0.00,VWS V13.01,2013-02-06 18:28:00,
2013-02-06 12:34:00,48.4,36.0,29.97,East,82,1.0,5.0,62,0.00,,SKC,0.00,VWS V13.01,2013-02-06 18:34:00,
2013-02-06 12:39:00,48.6,35.8,29.96,SSW,193,1.0,8.0,61,0.00,,SKC,0.00,VWS V13.01,2013-02-06 18:39:00,
2013-02-06 12:44:00,48.7,35.9,29.96,East,83,1.0,7.0,61,0.00,,SKC,0.00,VWS V13.01,2013-02-06 18:44:00,
2013-02-06 12:49:00,48.7,35.9,29.95,SSE,157,5.0,5.0,61,0.00,,SKC,0.00,VWS V13.01,2013-02-06 18:49:00,
2013-02-06 12:54:00,48.7,35.9,29.95,SSE,151,4.0,5.0,61,0.00,,SKC,0.00,VWS V13.01,2013-02-06 18:54:00,
2013-02-06 12:59:00,48.8,36.4,29.95,South,172,1.0,2.0,62,0.00,,SKC,0.00,VWS V13.01,2013-02-06 18:59:00,
2013-02-06 13:04:00,48.9,36.1,29.95,SSE,166,2.0,8.0,61,0.00,,SKC,0.00,VWS V13.01,2013-02-06 19:04:00,
2013-02-06 13:09:00,49.1,36.7,29.95,South,170,1.0,4.0,62,0.00,,SKC,0.00,VWS V13.01,2013-02-06 19:09:00,
2013-02-06 13:14:00,49.4,36.5,29.95,SSE,149,4.0,9.0,61,0.00,,SKC,0.00,VWS V13.01,2013-02-06 19:14:00,
2013-02-06 13:19:00,49.7,36.8,29.94,East,81,1.0,6.0,61,0.00,,SKC,0.00,VWS V13.01,2013-02-06 19:19:00,
2013-02-06 13:25:00,50.1,36.8,29.94,SE,135,0.0,11.0,60,0.00,,SKC,0.00,VWS V13.01,2013-02-06 19:25:00,
2013-02-06 13:30:00,50.2,36.4,29.94,SSE,154,0.0,5.0,59,0.00,,SKC,0.00,VWS V13.01,2013-02-06 19:30:00,
2013-02-06 13:35:00,50.3,37.0,29.94,South,169,1.0,4.0,60,0.00,,SKC,0.00,VWS V13.01,2013-02-06 19:35:00,
2013-02-06 13:40:00,50.8,37.4,29.93,SE,145,1.0,2.0,60,0.00,,SKC,0.00,VWS V13.01,2013-02-06 19:40:00,
2013-02-06 13:45:00,51.2,37.0,29.93,ESE,104,6.0,10.0,58,0.00,,SKC,0.00,VWS V13.01,2013-02-06 19:45:00,
2013-02-06 13:50:00,51.3,37.0,29.92,South,170,2.0,3.0,58,0.00,,SKC,0.00,VWS V13.01,2013-02-06 19:50:00,
2013-02-06 13:55:00,51.7,37.4,29.92,SSW,194,1.0,5.0,58,0.00,,SKC,0.00,VWS V13.01,2013-02-06 19:55:00,
2013-02-06 14:00:00,52.0,37.2,29.92,ESE,108,1.0,13.0,57,0.00,,SKC,0.00,VWS V13.01,2013-02-06 20:00:00,
2013-02-06 14:05:00,52.7,38.3,29.92,SE,133,0.0,4.0,58,0.00,,SKC,0.00,VWS V13.01,2013-02-06 20:05:00,
2013-02-06 14:10:00,53.0,38.2,29.91,South,172,0.0,3.0,57,0.00,,SKC,0.00,VWS V13.01,2013-02-06 20:10:00,
2013-02-06 14:15:00,53.2,38.4,29.91,SSE,163,2.0,4.0,57,0.00,,SKC,0.00,VWS V13.01,2013-02-06 20:15:00,
2013-02-06 14:20:00,53.1,38.3,29.91,SSE,150,2.0,7.0,57,0.00,,SKC,0.00,VWS V13.01,2013-02-06 20:20:00,
2013-02-06 14:25:00,53.1,38.3,29.90,East,100,2.0,6.0,57,0.00,,SKC,0.00,VWS V13.01,2013-02-06 20:25:00,
2013-02-06 14:30:00,53.2,38.4,29.90,SE,133,4.0,8.0,57,0.00,,SKC,0.00,VWS V13.01,2013-02-06 20:30:00,
2013-02-06 14:35:00,53.1,38.3,29.90,ESE,108,0.0,6.0,57,0.00,,SKC,0.00,VWS V13.01,2013-02-06 20:35:00,
2013-02-06 14:41:00,53.1,38.3,29.90,SE,145,0.0,2.0,57,0.00,,SKC,0.00,VWS V13.01,2013-02-06 20:41:00,
2013-02-06 14:46:00,53.2,38.4,29.90,SSE,151,4.0,5.0,57,0.00,,SKC,0.00,VWS V13.01,2013-02-06 20:46:00,
2013-02-06 14:51:00,53.1,38.7,29.90,SE,146,2.0,6.0,58,0.00,,SKC,0.00,VWS V13.01,2013-02-06 20:51:00,
2013-02-06 14:56:00,53.0,38.6,29.90,ESE,111,0.0,5.0,58,0.00,,SKC,0.00,VWS V13.01,2013-02-06 20:56:00,
2013-02-06 15:02:00,53.5,39.1,29.89,SSE,162,0.0,4.0,58,0.00,,SKC,0.00,VWS V13.01,2013-02-06 21:02:00,
2013-02-06 15:07:00,54.1,39.7,29.89,SSE,151,1.0,5.0,58,0.00,,SKC,0.00,VWS V13.01,2013-02-06 21:07:00,
2013-02-06 15:13:00,54.3,39.4,29.89,SE,138,0.0,4.0,57,0.00,,SKC,0.00,VWS V13.01,2013-02-06 21:13:00,
2013-02-06 15:18:00,54.4,39.5,29.89,ESE,116,7.0,11.0,57,0.00,,SKC,0.00,VWS V13.01,2013-02-06 21:18:00,
2013-02-06 15:23:00,54.6,40.1,29.89,SE,142,0.0,1.0,58,0.00,,SKC,0.00,VWS V13.01,2013-02-06 21:23:00,
2013-02-06 15:28:00,54.6,39.2,29.89,East,101,6.0,8.0,56,0.00,,SKC,0.00,VWS V13.01,2013-02-06 21:28:00,
2013-02-06 15:33:00,54.3,39.8,29.88,ESE,113,2.0,2.0,58,0.00,,SKC,0.00,VWS V13.01,2013-02-06 21:33:00,
2013-02-06 15:38:00,54.4,40.0,29.88,ESE,112,1.0,5.0,58,0.00,,SKC,0.00,VWS V13.01,2013-02-06 21:38:00,
2013-02-06 15:43:00,54.6,39.7,29.88,SE,124,4.0,6.0,57,0.00,,SKC,0.00,VWS V13.01,2013-02-06 21:43:00,
2013-02-06 15:49:00,54.3,39.8,29.88,East,101,7.0,7.0,58,0.00,,SKC,0.00,VWS V13.01,2013-02-06 21:49:00,
2013-02-06 15:55:00,54.2,39.8,29.88,ESE,112,1.0,7.0,58,0.00,,SKC,0.00,VWS V13.01,2013-02-06 21:55:00,
2013-02-06 16:00:00,54.1,39.2,29.88,ESE,112,0.0,8.0,57,0.00,,SKC,0.00,VWS V13.01,2013-02-06 22:00:00,
2013-02-06 16:05:00,54.1,39.7,29.88,ESE,112,0.0,0.0,58,0.00,,SKC,0.00,VWS V13.01,2013-02-06 22:05:00,
2013-02-06 16:10:00,54.6,39.7,29.88,ESE,112,0.0,0.0,57,0.00,,SKC,0.00,VWS V13.01,2013-02-06 22:10:00,
2013-02-06 16:15:00,55.0,39.6,29.88,ESE,122,4.0,4.0,56,0.00,,SKC,0.00,VWS V13.01,2013-02-06 22:15:00,
2013-02-06 16:20:00,55.4,40.0,29.88,ESE,122,0.0,2.0,56,0.00,,SKC,0.00,VWS V13.01,2013-02-06 22:20:00,
2013-02-06 16:25:00,55.9,40.0,29.88,ESE,123,1.0,2.0,55,0.00,,SKC,0.00,VWS V13.01,2013-02-06 22:25:00,
2013-02-06 16:30:00,56.2,40.3,29.88,ESE,122,0.0,4.0,55,0.00,,SKC,0.00,VWS V13.01,2013-02-06 22:30:00,
2013-02-06 16:35:00,56.4,40.5,29.88,SE,134,0.0,1.0,55,0.00,,SKC,0.00,VWS V13.01,2013-02-06 22:35:00,
2013-02-06 16:40:00,56.9,40.0,29.88,SE,125,4.0,7.0,53,0.00,,SKC,0.00,VWS V13.01,2013-02-06 22:40:00,
2013-02-06 16:46:00,57.0,39.6,29.88,ESE,122,2.0,6.0,52,0.00,,SKC,0.00,VWS V13.01,2013-02-06 22:46:00,
2013-02-06 16:51:00,56.9,39.5,29.87,SE,131,4.0,7.0,52,0.00,,SKC,0.00,VWS V13.01,2013-02-06 22:51:00,
2013-02-06 16:56:00,56.6,39.7,29.87,ESE,117,0.0,5.0,53,0.00,,SKC,0.00,VWS V13.01,2013-02-06 22:56:00,
2013-02-06 17:01:00,56.8,39.9,29.87,SE,125,0.0,6.0,53,0.00,,SKC,0.00,VWS V13.01,2013-02-06 23:01:00,
2013-02-06 17:06:00,56.8,39.9,29.87,SE,134,4.0,4.0,53,0.00,,SKC,0.00,VWS V13.01,2013-02-06 23:06:00,
2013-02-06 17:11:00,56.1,39.7,29.87,ESE,116,11.0,11.0,54,0.00,,SKC,0.00,VWS V13.01,2013-02-06 23:11:00,
2013-02-06 17:16:00,55.2,39.8,29.87,ESE,121,0.0,5.0,56,0.00,,SKC,0.00,VWS V13.01,2013-02-06 23:16:00,
2013-02-06 17:21:00,54.3,39.0,29.87,ESE,121,5.0,8.0,56,0.00,,SKC,0.00,VWS V13.01,2013-02-06 23:21:00,
2013-02-06 17:26:00,53.4,39.0,29.87,ESE,115,0.0,0.0,58,0.00,,SKC,0.00,VWS V13.01,2013-02-06 23:26:00,
2013-02-06 17:31:00,53.0,38.6,29.87,ESE,115,0.0,0.0,58,0.00,,SKC,0.00,VWS V13.01,2013-02-06 23:31:00,
2013-02-06 17:36:00,52.6,38.7,29.87,ESE,115,0.0,0.0,59,0.00,,SKC,0.00,VWS V13.01,2013-02-06 23:36:00,
2013-02-06 17:41:00,52.2,38.8,29.87,ESE,115,0.0,0.0,60,0.00,,SKC,0.00,VWS V13.01,2013-02-06 23:41:00,
2013-02-06 17:46:00,51.9,38.5,29.87,ESE,115,0.0,0.0,60,0.00,,SKC,0.00,VWS V13.01,2013-02-06 23:46:00,
2013-02-06 17:51:00,51.5,38.5,29.87,ESE,115,0.0,0.0,61,0.00,,SKC,0.00,VWS V13.01,2013-02-06 23:51:00,
2013-02-06 17:56:00,51.3,38.7,29.88,ESE,115,0.0,0.0,62,0.00,,SKC,0.00,VWS V13.01,2013-02-06 23:56:00,
2013-02-06 18:01:00,51.1,38.5,29.87,ESE,115,0.0,0.0,62,0.00,,SKC,0.00,VWS V13.01,2013-02-07 00:01:00,
2013-02-06 18:07:00,50.8,38.3,29.87,ESE,115,0.0,0.0,62,0.00,,SKC,0.00,VWS V13.01,2013-02-07 00:07:00,
2013-02-06 18:12:00,50.5,38.4,29.87,ESE,115,0.0,0.0,63,0.00,,SKC,0.00,VWS V13.01,2013-02-07 00:12:00,
2013-02-06 18:17:00,50.3,38.6,29.87,ESE,115,0.0,0.0,64,0.00,,SKC,0.00,VWS V13.01,2013-02-07 00:17:00,
2013-02-06 18:22:00,50.1,38.4,29.88,ESE,115,0.0,0.0,64,0.00,,SKC,0.00,VWS V13.01,2013-02-07 00:22:00,
2013-02-06 18:28:00,49.8,38.5,29.88,ESE,115,0.0,0.0,65,0.00,,SKC,0.00,VWS V13.01,2013-02-07 00:28:00,
2013-02-06 18:33:00,49.5,38.2,29.88,ESE,115,0.0,0.0,65,0.00,,SKC,0.00,VWS V13.01,2013-02-07 00:33:00,
2013-02-06 18:39:00,48.9,38.1,29.88,ESE,115,0.0,0.0,66,0.00,,SKC,0.00,VWS V13.01,2013-02-07 00:39:00,
2013-02-06 18:44:00,48.6,38.2,29.88,ESE,115,0.0,0.0,67,0.00,,SKC,0.00,VWS V13.01,2013-02-07 00:44:00,
2013-02-06 18:49:00,48.5,38.4,29.88,ESE,115,0.0,0.0,68,0.00,,SKC,0.00,VWS V13.01,2013-02-07 00:49:00,
2013-02-06 18:54:00,48.3,38.2,29.88,ESE,115,0.0,0.0,68,0.00,,SKC,0.00,VWS V13.01,2013-02-07 00:54:00,
2013-02-06 18:59:00,48.2,38.2,29.88,ESE,114,0.0,2.0,68,0.00,,SKC,0.00,VWS V13.01,2013-02-07 00:59:00,
2013-02-06 19:04:00,48.0,38.0,29.88,ESE,114,0.0,0.0,68,0.00,,SKC,0.00,VWS V13.01,2013-02-07 01:04:00,
2013-02-06 19:10:00,47.8,37.8,29.89,ESE,115,0.0,0.0,68,0.00,,SKC,0.00,VWS V13.01,2013-02-07 01:10:00,
2013-02-06 19:15:00,47.7,37.7,29.88,ESE,115,0.0,0.0,68,0.00,,SKC,0.00,VWS V13.01,2013-02-07 01:15:00,
2013-02-06 19:20:00,47.6,38.0,29.89,ESE,115,0.0,0.0,69,0.00,,SKC,0.00,VWS V13.01,2013-02-07 01:20:00,
2013-02-06 19:25:00,47.5,37.8,29.89,ESE,115,0.0,0.0,69,0.00,,SKC,0.00,VWS V13.01,2013-02-07 01:25:00,
2013-02-06 19:30:00,47.3,37.7,29.89,ESE,115,0.0,0.0,69,0.00,,SKC,0.00,VWS V13.01,2013-02-07 01:30:00,
2013-02-06 19:35:00,47.2,37.6,29.89,ESE,115,0.0,0.0,69,0.00,,SKC,0.00,VWS V13.01,2013-02-07 01:35:00,
2013-02-06 19:40:00,47.1,37.8,29.89,ESE,115,0.0,0.0,70,0.00,,SKC,0.00,VWS V13.01,2013-02-07 01:40:00,
2013-02-06 19:45:00,47.0,37.7,29.89,ESE,115,0.0,0.0,70,0.00,,SKC,0.00,VWS V13.01,2013-02-07 01:45:00,
2013-02-06 19:50:00,46.8,37.5,29.90,ESE,115,0.0,0.0,70,0.00,,SKC,0.00,VWS V13.01,2013-02-07 01:50:00,
2013-02-06 19:55:00,46.7,37.5,29.90,ESE,113,0.0,0.0,70,0.00,,SKC,0.00,VWS V13.01,2013-02-07 01:55:00,
2013-02-06 20:00:00,46.7,37.5,29.90,ESE,113,0.0,0.0,70,0.00,,SKC,0.00,VWS V13.01,2013-02-07 02:00:00,
2013-02-06 20:05:00,46.7,37.8,29.90,ESE,113,0.0,0.0,71,0.00,,SKC,0.00,VWS V13.01,2013-02-07 02:05:00,
2013-02-06 20:10:00,46.7,37.8,29.90,ESE,113,0.0,0.0,71,0.00,,SKC,0.00,VWS V13.01,2013-02-07 02:10:00,
2013-02-06 20:15:00,46.7,37.8,29.90,ESE,113,0.0,0.0,71,0.00,,SKC,0.00,VWS V13.01,2013-02-07 02:15:00,
2013-02-06 20:20:00,46.8,37.9,29.90,ESE,113,0.0,0.0,71,0.00,,SKC,0.00,VWS V13.01,2013-02-07 02:20:00,
2013-02-06 20:25:00,46.8,37.9,29.90,ESE,113,0.0,0.0,71,0.00,,SKC,0.00,VWS V13.01,2013-02-07 02:25:00,
2013-02-06 20:30:00,46.8,37.9,29.90,ESE,113,0.0,0.0,71,0.00,,SKC,0.00,VWS V13.01,2013-02-07 02:30:00,
2013-02-06 20:35:00,46.9,37.6,29.90,ESE,113,0.0,0.0,70,0.00,,SKC,0.00,VWS V13.01,2013-02-07 02:35:00,
2013-02-06 20:40:00,46.8,37.5,29.90,ESE,113,0.0,0.0,70,0.00,,SKC,0.00,VWS V13.01,2013-02-07 02:40:00,
2013-02-06 20:45:00,46.8,37.5,29.89,ESE,113,0.0,0.0,70,0.00,,SKC,0.00,VWS V13.01,2013-02-07 02:45:00,
2013-02-06 20:50:00,46.8,37.5,29.89,ESE,113,0.0,0.0,70,0.00,,SKC,0.00,VWS V13.01,2013-02-07 02:50:00,
2013-02-06 20:56:00,46.7,37.5,29.89,ESE,113,0.0,0.0,70,0.00,,SKC,0.00,VWS V13.01,2013-02-07 02:56:00,
2013-02-06 21:01:00,46.6,37.7,29.89,ESE,113,0.0,1.0,71,0.00,,SKC,0.00,VWS V13.01,2013-02-07 03:01:00,
2013-02-06 21:06:00,46.6,37.7,29.89,ESE,113,0.0,0.0,71,0.00,,SKC,0.00,VWS V13.01,2013-02-07 03:06:00,
2013-02-06 21:11:00,46.5,37.6,29.90,ESE,113,0.0,0.0,71,0.00,,SKC,0.00,VWS V13.01,2013-02-07 03:11:00,
2013-02-06 21:16:00,46.4,37.5,29.90,ESE,113,0.0,0.0,71,0.00,,SKC,0.00,VWS V13.01,2013-02-07 03:16:00,
2013-02-06 21:22:00,46.3,37.4,29.90,ESE,113,0.0,0.0,71,0.00,,SKC,0.00,VWS V13.01,2013-02-07 03:22:00,
2013-02-06 21:27:00,46.3,37.8,29.90,ESE,113,0.0,0.0,72,0.00,,SKC,0.00,VWS V13.01,2013-02-07 03:27:00,
2013-02-06 21:32:00,46.4,37.9,29.91,ESE,113,0.0,0.0,72,0.00,,SKC,0.00,VWS V13.01,2013-02-07 03:32:00,
2013-02-06 21:37:00,46.5,38.0,29.90,ESE,113,6.0,7.0,72,0.00,,SKC,0.00,VWS V13.01,2013-02-07 03:37:00,
2013-02-06 21:42:00,46.6,38.1,29.90,ESE,113,1.0,5.0,72,0.00,,SKC,0.00,VWS V13.01,2013-02-07 03:42:00,
2013-02-06 21:47:00,46.6,38.1,29.91,ESE,113,0.0,0.0,72,0.00,,SKC,0.00,VWS V13.01,2013-02-07 03:47:00,
2013-02-06 21:52:00,46.5,38.0,29.91,ESE,113,0.0,0.0,72,0.00,,SKC,0.00,VWS V13.01,2013-02-07 03:52:00,
2013-02-06 21:58:00,46.5,37.6,29.90,ESE,113,0.0,0.0,71,0.00,,SKC,0.00,VWS V13.01,2013-02-07 03:58:00,
2013-02-06 22:03:00,46.4,37.5,29.90,ESE,113,0.0,0.0,71,0.00,,SKC,0.00,VWS V13.01,2013-02-07 04:03:00,
2013-02-06 22:09:00,46.3,37.4,29.90,ESE,113,0.0,0.0,71,0.00,,SKC,0.00,VWS V13.01,2013-02-07 04:09:00,
2013-02-06 22:14:00,46.1,37.2,29.91,ESE,113,0.0,0.0,71,0.00,,SKC,0.00,VWS V13.01,2013-02-07 04:14:00,
2013-02-06 22:20:00,46.0,37.5,29.91,ESE,113,0.0,0.0,72,0.00,,SKC,0.00,VWS V13.01,2013-02-07 04:20:00,
2013-02-06 22:26:00,45.7,36.8,29.90,ESE,113,0.0,0.0,71,0.00,,SKC,0.00,VWS V13.01,2013-02-07 04:26:00,
2013-02-06 22:31:00,45.2,36.7,29.90,ESE,113,0.0,0.0,72,0.00,,SKC,0.00,VWS V13.01,2013-02-07 04:31:00,
2013-02-06 22:37:00,44.9,36.8,29.90,ESE,113,0.0,0.0,73,0.00,,SKC,0.00,VWS V13.01,2013-02-07 04:37:00,
2013-02-06 22:43:00,44.6,36.5,29.90,ESE,113,0.0,0.0,73,0.00,,SKC,0.00,VWS V13.01,2013-02-07 04:43:00,
2013-02-06 22:48:00,44.3,36.5,29.90,ESE,113,0.0,0.0,74,0.00,,SKC,0.00,VWS V13.01,2013-02-07 04:48:00,
2013-02-06 22:53:00,44.0,36.3,29.90,ESE,113,0.0,0.0,74,0.00,,SKC,0.00,VWS V13.01,2013-02-07 04:53:00,
2013-02-06 22:58:00,43.7,36.0,29.90,ESE,113,0.0,0.0,74,0.00,,SKC,0.00,VWS V13.01,2013-02-07 04:58:00,
2013-02-06 23:00:00,43.5,35.8,29.90,ESE,113,0.0,0.0,74,0.00,,SKC,0.00,VWS V13.01,2013-02-07 05:00:00,
2013-02-06 23:01:00,43.4,35.7,29.90,ESE,113,0.0,0.0,74,0.00,,SKC,0.00,VWS V13.01,2013-02-07 05:01:00,
2013-02-06 23:02:00,43.4,35.7,29.90,ESE,113,0.0,0.0,74,0.00,,SKC,0.00,VWS V13.01,2013-02-07 05:02:00,
2013-02-06 23:07:00,43.1,35.7,29.90,ESE,113,0.0,0.0,75,0.00,,SKC,0.00,VWS V13.01,2013-02-07 05:07:00,
2013-02-06 23:12:00,42.8,35.4,29.90,ESE,113,0.0,0.0,75,0.00,,SKC,0.00,VWS V13.01,2013-02-07 05:12:00,
2013-02-06 23:17:00,42.5,35.2,29.90,ESE,113,0.0,0.0,75,0.00,,SKC,0.00,VWS V13.01,2013-02-07 05:17:00,
2013-02-06 23:22:00,42.2,35.2,29.90,ESE,113,0.0,0.0,76,0.00,,SKC,0.00,VWS V13.01,2013-02-07 05:22:00,
2013-02-06 23:28:00,41.8,35.1,29.91,ESE,113,0.0,0.0,77,0.00,,SKC,0.00,VWS V13.01,2013-02-07 05:28:00,
2013-02-06 23:33:00,41.7,35.0,29.91,ESE,113,0.0,0.0,77,0.00,,SKC,0.00,VWS V13.01,2013-02-07 05:33:00,
2013-02-06 23:38:00,41.4,34.7,29.91,ESE,113,0.0,0.0,77,0.00,,SKC,0.00,VWS V13.01,2013-02-07 05:38:00,
2013-02-06 23:43:00,41.2,34.9,29.91,ESE,113,0.0,0.0,78,0.00,,SKC,0.00,VWS V13.01,2013-02-07 05:43:00,
2013-02-06 23:48:00,41.1,35.1,29.91,ESE,113,0.0,0.0,79,0.00,,SKC,0.00,VWS V13.01,2013-02-07 05:48:00,
2013-02-06 23:53:00,40.9,35.2,29.91,ESE,113,0.0,0.0,80,0.00,,SKC,0.00,VWS V13.01,2013-02-07 05:53:00,
2013-02-06 23:58:00,40.9,35.5,29.91,ESE,113,0.0,0.0,81,0.00,,SKC,0.00,VWS V13.01,2013-02-07 05:58:00,